STARLINK-6240, 57084

Orbit data source: Space-Track

STARLINK-6240, 57084 is a payload satellite owned by SpaceX/Seattle (US) in LEO that was launched on Thu, 22 Jun 2023 UTC via an FALCON 9 launch vehicle from the Air Force Western Test Range (AFWTR). Payload-class satellites include a variety of spacecraft equipped with specific instruments for various scientific and technological missions. These include communications satellites like Starlink; space stations such as the ISS; scientific satellites like the Hubble; Earth observation satellites from companies like Planet Labs, Umbra, and HawkEye 360; GPS; miniature CubeSats for education and research; and military/defense satellites.

Loading next visibility...
Identifier
57084, 2023-088AN
Orbit
LEO
Country
Flag of USUS
Related business
Manufacturer
SpaceX/Seattle
Mission
Operational Commercial Communications
Bus & Motor
STARLINK, Unknown motor
Mass
305 kg wet, ~290 kg dry
Launch date (UTC)
Icon of a cake. It is the launch day of the satellite!2023-06-22 (3 years ago)
Launch vehicle
FALCON 9
Launch site
Air Force Western Test Range (AFWTR)
Object type
Payload
Rocket body
Debris
Shape & HBR
Box + 1 Pan, 10.1 m
Radar Cross Section
11.087 m², Large (>1 m²)

Expand to show TLE details & history
Last TLE update: 2 days ago

TLE from 2 days ago
0 STARLINK-6240
1 57084U 23088AN  26171.48376950 -.00000340  00000-0 -28277-5 0  9994
2 57084  43.0009 235.4079 0001106 267.3370  92.7355 15.27575853166224
Epoch: 2026-06-20T11:36Z
TLE epoch observation values (Epoch: 2026-06-20T11:36:37.684Z)
Latitude
-0.00004°
Longitude
152.55311°
Altitude
482.873 km
Speed
7.626 km/s
True Right ascension
15h 41m 37s
True Declination
0° 00' 00"
Sunlit
Object was in full shadow at epoch
Visualization orbit readout
Latitude
Unknown
Longitude
Unknown
Altitude
Unknown
Speed
Unknown
Apparent Right ascension
Unknown
Apparent Declination
Unknown
Sunlit
N/A
Visualization observer readout
Local Sidereal Time
23:20:33
Azimuth
Unknown
Elevation
Unknown
Doppler factor
Unknown
Orbital elements
Apogee altitude
485.766 km
Perigee altitude
484.247 km
Semi-major axis
6,863.144 km
Eccentricity
0.00011
Inclination
43.0009°
RAAN
235.4079°
Arg. of periapsis
267.337°
True anomaly
92.74816°
Mean anomaly
92.7355°
Eccentric anomaly
92.74183°
Mean motion
3.81732 °/min
Orbital period
94.31 mins
BSTAR
-0.0000028277
Loading maneuver chart data...
Computing Atmospheric mass density...
Loading historical data...
Loading historical data...
Loading historical data...
Loading historical data...
Loading historical data...
Loading historical data...
Loading historical data...

Documentation

Showing up to 5 results
|